Location: Erp
(42.9417°N, 1.2009°E)
Time: 04:34:22
(UTC+00:00)

DMSP B5D1-3 - Visible Passes

Search period start: 21 April 2026 00:00
Search period end: 01 May 2026 00:00
Orbit: 758 x 772 km, 98.5° (Epoch: 20 April)

Date Brightness Start Highest point End Pass type
(mag) Time Alt. Az. Time Alt. Az. Time Alt. Az.
21 Apr 8.0 20:41:25 10° NW 20:42:37 11° WNW 20:43:50 10° WNW visible
22 Apr 7.2 20:02:27 10° NNW 20:06:18 22° WNW 20:10:07 10° WSW visible
23 Apr 5.8 19:24:57 10° N 19:29:46 46° WNW 19:34:33 10° SW visible
24 Apr 7.7 20:28:51 10° NNW 20:31:19 14° WNW 20:33:46 10° W visible
25 Apr 7.7 04:26:42 10° E 04:29:51 17° ENE 04:32:59 10° NNE visible
25 Apr 6.8 19:50:40 10° N 19:54:55 28° WNW 19:59:08 10° WSW visible
26 Apr 5.3 19:13:21 10° N 19:18:19 58° WNW 19:23:15 10° SSW visible
27 Apr 7.6 20:16:45 10° NNW 20:19:57 17° WNW 20:23:10 10° W visible
28 Apr 8.0 04:16:10 10° E 04:18:30 13° ENE 04:20:52 10° NNE visible
28 Apr 6.4 19:38:58 10° N 19:43:30 34° WNW 19:48:02 10° SW visible
29 Apr 8.1 20:44:15 10° NW 20:44:55 10° NW 20:45:36 10° WNW visible
30 Apr 7.3 20:04:51 10° NNW 20:08:36 21° WNW 20:12:20 10° WSW visible
